Regional Weather Roundup
Issued by NWS Wakefield, VA

Home | Current Version | Previous Version | Graphics & Text | Print | Product List | Glossary On
Versions: 1 2 3 4 5 6 7 8 9 10 11 12 13 14 15 16 17 18 19 20 21 22 23 24 25 26 27 28 29 30 31 32 33 34 35 36 37 38 39 40 41 42 43 44 45 46 47 48 49 50
000
ASUS41 KAKQ 040114
RWRAKQ

REGIONAL WEATHER ROUNDUP
NATIONAL WEATHER SERVICE WAKEFIELD VA
900 PM EDT SUN MAY 03 2015

Note: "fair" indicates few or no clouds below 12,000 feet with no
significant weather and/or obstructions to visibility. * = Denotes
station may not report precipitation (e.g., rain,snow,etc.),
thunder or fog.

VAZ042-051-052>054-056-040200-
NORTHERN VIRGINIA

CITY           SKY/WX    TMP DP  RH WIND       PRES   REMARKS
WASH NATIONAL  PTCLDY    70  51  51 S7        30.11R
DULLES         PTCLDY    67  43  41 S3        30.11R
FORT BELVOIR   CLEAR     61  53  73 CALM      30.12R
QUANTICO       CLEAR     66  51  58 NW5       30.13R
FREDERICKSBRG* PTCLDY    67  50  54 CALM      30.12R
STAFFORD*      FAIR      62  46  57 CALM      30.17R
WARRENTON      CLEAR     58  52  78 CALM      30.12R
CULPEPER*      NOT AVBL
MANASSAS*      NOT AVBL
LEESBURG*      CLEAR     68  46  45 SW5       30.12R
WINCHESTER     CLEAR     64  41  42 CALM      30.12R
FRONT ROYAL*   CLOUDY    68  43  40 CALM      30.12R
LURAY*         FAIR      64  48  55 CALM      30.14R
$$

VAZ048-049-060>072-079>083-040200-
CENTRAL AND SOUTH CENTRAL VIRGINIA

CITY           SKY/WX    TMP DP  RH WIND       PRES   REMARKS
RICHMOND       MOCLDY    67  47  48 SE3       30.14R
CHESTERFIELD*  FAIR      64  43  45 CALM      30.16R
PETERSBURG*    MOCLDY    57  53  87 CALM      30.16R
HANOVER        PTCLDY    62  48  60 CALM      30.15R
TAPPAHANNOCK*  PTCLDY    63  43  47 CALM      30.15R
QUINTON*       FAIR      64  49  58 CALM      30.14R
CHARLOTTSVILLE CLEAR     68  41  37 S6        30.13R
GORDONSVILLE*  FAIR      60  48  64 CALM      30.13R
ORANGE*        CLEAR     61  50  67 CALM      30.15R
LOUISA*        CLEAR     59  48  67 CALM      30.13R
BUMPASS*       FAIR      62  46  57 CALM      30.14R
FARMVILLE*     MOCLDY    61  47  58 CALM      30.14R
CREWE*         FAIR      61  51  69 CALM      30.15S
FORT PICKETT*  FAIR      63  49  60 CALM      30.16R
CHASE CITY*    FAIR      62  53  71 CALM      30.16R
CLARKSVILLE*   FAIR      59  52  77 CALM      30.16R
SOUTH HILL*    PTCLDY    60  52  75 CALM      30.22R
LAWRENCEVILLE* FAIR      63  54  72 CALM      30.16R
EMPORIA*       MOCLDY    59  48  67 CALM      30.18R
$$

VAZ088>098-040200-
SOUTHEAST VIRGINIA

CITY           SKY/WX    TMP DP  RH WIND       PRES   REMARKS
NORFOLK        PTCLDY    70  44  39 S5        30.15R
VIRGINIA BEACH PTCLDY    68  48  48 S6        30.16R
NORFOLK NAVAL  PTCLDY    73  47  39 SE5       30.17R
WEST POINT*    CLEAR     66  43  42 CALM      30.16R
SALUDA*        FAIR      67  43  42 S5        30.14R
NEWPORT NEWS   CLEAR     63  49  60 E6        30.15R
LANGLEY AFB    CLEAR     69  48  47 VRB3      30.14R
FORT EUSTIS    PTCLDY    65  50  58 SE1       30.13R
WILLIAMSBURG*  CLEAR     64  55  72 CALM      30.16R
HR EXEC AP*    FAIR      55  52  88 CALM      30.17R
FRANKLIN*      MOCLDY    62  50  66 CALM      30.17R
WAKEFIELD      PTCLDY    61  51  70 CALM      30.16R
$$

VAZ020-022-025-037-045-040200-
WEST CENTRAL AND SOUTHWEST VIRGINIA

CITY           SKY/WX    TMP DP  RH WIND       PRES   REMARKS
STAUNTON*      CLEAR     66  39  36 S3        30.17R
WAYNESBORO*    FAIR      64  40  41 CALM      30.16R
HOT SPRINGS VA CLEAR     59  32  35 S8        30.22R
LYNCHBURG      CLEAR     60  44  55 CALM      30.17R
DANVILLE       CLEAR     60  50  69 CALM      30.16R
SOUTH BOSTON*  FAIR      61  49  64 MISG      30.16R
MARTINSVILLE   PTCLDY    61  50  66 CALM      30.19R
ROANOKE        PTCLDY    65  43  44 SE5       30.18R
BLACKSBURG     MOCLDY    60  42  51 E5        30.21R
DUBLIN*        PTCLDY    66  46  49 CALM      30.19S
MARION*        PTCLDY    65  45  47 CALM      30.21R
HILLSVILLE*    PTCLDY    63  46  55 S6        30.21R
RICHLANDS*     FAIR      67  27  22 S3        30.18S
WISE*          PTCLDY    63  32  31 SW3       30.20R
ABINGDON*      PTCLDY    63  46  52 CALM      30.17R
$$

MDZ021>025-VAZ099-100-040200-
SOUTHERN MARYLAND AND THE DELMARVA PENINSULA

CITY           SKY/WX    TMP DP  RH WIND       PRES   REMARKS
PATUXENT RIVER CLEAR     66  43  43 S7        30.13R
BAY BRIDGE APT   N/A    N/A N/A N/A S5        30.12R
LEONARDTOWN    CLEAR     68  37  32 S5        30.15R
DOVER          CLEAR     63  49  60 S3        30.09R
GEORGETOWN     CLEAR     63  51  65 S6        30.14R
EASTON         CLEAR     68  46  45 CALM      30.16R
CAMBRIDGE      CLEAR     68  46  45 CALM      30.13R
SALISBURY      CLEAR     60  52  74 SE3       30.14R
OCEAN CITY     CLEAR     55  53  93 CALM      30.14R FOG
WALLOPS ISLAND CLEAR     60  54  80 CALM      30.15R
ACCOMACK*      CLEAR     64  50  59 S8        30.15R
$$

NCZ012>017-030>032-040200-
NORTH CENTRAL AND EASTERN NORTH CAROLINA

CITY           SKY/WX    TMP DP  RH WIND       PRES   REMARKS
ROANOKE RAPIDS FAIR      61  52  72 CALM      30.17R
RALEIGH        PTCLDY    64  51  62 CALM      30.17R
ELIZABETH CITY PTCLDY    63  52  67 S6        30.17R
AHOSKIE*       PTCLDY    61  53  75 CALM      30.18R
EDENTON*       PTCLDY    64  56  73 CALM      30.18R
CURRITUCK*     PTCLDY    66  49  54 S3        30.18R
KILL DEVIL HLS PTCLDY    67  47  48 S3        30.18R
MANTEO         PTCLDY    64  54  70 S5        30.19R
CAPE HATTERAS  CLEAR     59  57  93 SW5       30.20R
TARBORO*       FAIR      59  56  89 CALM      30.18R
GOLDSBORO      CLEAR     67  46  47 S6        30.17R
WASHINGTON     CLEAR     68  48  48 S5        30.19R
GREENVILLE     CLEAR     61  50  67 CALM      30.19S
NEW BERN       PTCLDY    66  45  46 S5        30.22R
WILMINGTON     CLEAR     64  50  60 CALM      30.21R
$$

VAZ048-040200-
ELSEWHERE

CITY           SKY/WX    TMP DP  RH WIND       PRES   REMARKS
HARRISBURG PA  PTCLDY    69  48  47 SW9       30.08R
BALTIMORE      PTCLDY    69  42  37 S3        30.11R
ANNAPOLIS      CLEAR     68  43  40 S5        30.11R
ANDREWS AFB    CLEAR     65  47  51 S5        30.11R
PHILADELPHIA   CLEAR     68  41  37 S9        30.11R
HENDERSON NC   CLEAR     64  49  59 CALM      30.17R
GREENSBORO     PTCLDY    67  46  47 S6        30.16R
ROCKY MOUNT    CLEAR     61  54  77 CALM      30.17R
$$

VAZ100-040200-
MARINE

STATION/POSITION TIME  TEMP    WIND        PRES    WAVE   SWELL
                       AIR SEA DIR/SP/G            HT/PER HT/PER
                 (UTC) (F)     (DEG/KT/KT) (MB)    (FT/S) (FT/S)
BRANDYWINE LGT   0000   55 54  150/ 13/ 14 1019.8
CAPE MAY NJ      0000   57 62  110/  7/  9 1019.7R
LEWES DE         0000   64 58  180/  5/  8 1019.7R
15NM E FENWICK I 0050   53 52              1020.5R   4/11
OCEAN-CITY-INLET 0000   57 54  200/  4/  6 1020.1
WACHAPREAGUE VA  0000   67 63  220/  8/ 11 1020.5R
THOMAS POINT MD  0100   65 61  180/ 11/ 11 1020.4R
GOOSES REEF MD   0100   64 60                N/A
COVE POINT MD    0000   70     200/ 11/ 12 1020.3R
SOLOMONS ISLAND  0000      62                N/A
BISHOPS HEAD MD  0000   66 69  200/  9/ 11 1019.6R
PINEY POINT MD   0006          180/  9/ 10   N/A
CAMBRIDGE MD     0000   73 61  190/  3/  5 1019.4R
LEWISETTA VA     0000   71 64              1019.8R
RAPPAHANNOCK LGT 0000          180/  9/  9 1021.0R
YORK RVR RNG VA  0000   68     140/ 14/ 15 1019.8R
YORKTOWN VA      0000   65 60   90/  6/  6 1020.2R
JAMESTOWN VA     0100   66 65     CALM     1020.0R
DOMINION TERM VA 0000   69     200/  4/  4 1020.5R
KIPTOPEKE VA     0000      66  160/ 10/ 11   N/A
CHES BAY BRIDGE  0000   71 58  140/  9/  9 1020.3
CAPE HENRY VA    0000   71     170/  6/  7 1019.5R
CHESAPEAKE LGHT  0000   71     180/ 17/ 17 1021.3R
WILLOUBY STN VA  0000   74     140/ 10/ 12 1021.2R
S CRANEY ISL VA  0000           CALM  /  1 1020.5R
CAPE HENRY BUOY  0028      56                N/A     3/11   2/11
1ST LANDING BUOY 0100      60                N/A     2/ 6
CAPE CHARLES BUO 0026      60                N/A     3/11   3/11
OFFSHORE WE BUOY 0011      56                N/A     4/10   3/10
64NM E OF VA BCH 0050   63 63  200/  8/ 10 1021.3R   4/10   5/10
DUCK PIER NC     0000   71 55  180/ 10/ 13 1020.4R
44056 DUCK FRF   0011      60                N/A     4/10   2/13
OREGON INLET NC  0000   66 64  190/  7/  8 1021.8R
HATTERAS NC      0000   66 65  220/  5/  6 1021.9R
DIAMOND SHLS NC  0050   66 62  250/  4/  6 1022.7R   5/ 9   5/ 9
CAPE LOOKOUT NC  0100   67     210/  6/  6 1022.9R
$$


USA.gov is the U.S. government's official web portal to all federal, state and local government web resources and services.